AAY1164 KSAV-KLCK

Flight info

Callsign AAY1164
Flight time 1h 22m
Altitude 37000
Route SMALZ IRQ SPA J85 NEALS/N0450F380 MCGNS SCRLT2
Aircraft A20N/M-SDE2E3FGHIRWXY/LB1

Departure

Time 2026-04-17 20:50
Airport Savannah Hilton Head International Airport (KSAV)

Arrival

Time 2026-04-17 22:13
Airport Rickenbacker International Airport (KLCK)
Time Latitude Longitude Altitude Speed Heading
2026-04-17 20:45 32.12641 -81.18979 59 ft 0 kts 181°
2026-04-17 20:48 32.12624 -81.18950 50 ft 4 kts 76°
2026-04-17 20:48 32.12679 -81.18891 57 ft 19 kts 20°
2026-04-17 20:48 32.12800 -81.18876 57 ft 0 kts 356°
2026-04-17 20:49 32.12810 -81.18877 55 ft 8 kts 353°
2026-04-17 20:49 32.12849 -81.18961 50 ft 0 kts 269°
2026-04-17 20:49 32.12848 -81.19072 54 ft 44 kts 271°
2026-04-17 20:50 32.12858 -81.19735 52 ft 118 kts 271°
2026-04-17 20:50 32.12868 -81.20995 44 ft 184 kts 271°
2026-04-17 20:50 32.12881 -81.22591 524 ft 200 kts 270°
2026-04-17 20:50 32.12892 -81.24278 1394 ft 208 kts 269°
2026-04-17 20:51 32.12898 -81.25969 2309 ft 213 kts 272°
2026-04-17 20:51 32.13208 -81.27756 2719 ft 237 kts 296°
2026-04-17 20:51 32.14266 -81.29332 3140 ft 254 kts 320°
2026-04-17 20:51 32.15842 -81.30327 3847 ft 262 kts 344°
2026-04-17 20:52 32.17657 -81.30664 4627 ft 265 kts 348°
2026-04-17 20:52 32.19429 -81.31294 5397 ft 266 kts 334°
2026-04-17 20:52 32.21068 -81.32304 6193 ft 267 kts 328°
2026-04-17 20:52 32.22650 -81.33481 6927 ft 270 kts 325°
2026-04-17 20:53 32.24210 -81.34734 7668 ft 273 kts 324°
2026-04-17 20:53 32.25781 -81.36019 8417 ft 276 kts 324°
2026-04-17 20:53 32.27376 -81.37309 9219 ft 279 kts 324°
2026-04-17 20:53 32.28995 -81.38593 10019 ft 282 kts 325°
2026-04-17 20:54 32.30673 -81.39899 10501 ft 298 kts 325°
2026-04-17 20:54 32.32468 -81.41279 10785 ft 318 kts 326°
2026-04-17 20:54 32.34377 -81.42737 11074 ft 335 kts 326°
2026-04-17 20:54 32.36374 -81.44256 11504 ft 345 kts 326°
2026-04-17 20:55 32.38409 -81.45802 12101 ft 349 kts 326°
2026-04-17 20:55 32.40457 -81.47359 12746 ft 351 kts 325°
2026-04-17 20:55 32.42489 -81.48908 13380 ft 353 kts 325°
2026-04-17 20:55 32.44563 -81.50491 13991 ft 356 kts 325°
2026-04-17 20:56 32.46676 -81.52049 14549 ft 359 kts 328°
2026-04-17 20:56 32.48915 -81.53397 15125 ft 363 kts 332°
2026-04-17 20:56 32.51217 -81.54666 15701 ft 366 kts 333°
2026-04-17 20:56 32.53561 -81.55891 16258 ft 369 kts 334°
2026-04-17 20:57 32.55927 -81.57093 16800 ft 371 kts 334°
2026-04-17 20:57 32.58313 -81.58291 17347 ft 374 kts 334°
2026-04-17 20:57 32.60718 -81.59498 17859 ft 377 kts 334°
2026-04-17 20:57 32.63144 -81.60719 18378 ft 379 kts 334°
2026-04-17 20:58 32.65582 -81.61952 18829 ft 381 kts 334°
2026-04-17 20:58 32.68022 -81.63190 19313 ft 382 kts 334°
2026-04-17 20:58 32.70478 -81.64440 19798 ft 384 kts 334°
2026-04-17 20:58 32.72938 -81.65694 20265 ft 386 kts 333°
2026-04-17 20:59 32.75382 -81.66942 20764 ft 387 kts 333°
2026-04-17 20:59 32.77865 -81.68211 21258 ft 389 kts 333°
2026-04-17 20:59 32.80366 -81.69489 21759 ft 390 kts 333°
2026-04-17 20:59 32.82867 -81.70768 22242 ft 392 kts 333°
2026-04-17 21:00 32.85379 -81.72054 22705 ft 394 kts 333°
2026-04-17 21:00 32.87905 -81.73348 23176 ft 396 kts 333°
2026-04-17 21:00 32.90445 -81.74649 23613 ft 398 kts 333°
2026-04-17 21:00 32.92999 -81.75958 23978 ft 400 kts 333°
2026-04-17 21:01 32.95567 -81.77275 24347 ft 402 kts 333°
2026-04-17 21:01 32.98138 -81.78594 24708 ft 403 kts 333°
2026-04-17 21:01 33.00721 -81.79921 25084 ft 404 kts 333°
2026-04-17 21:01 33.03283 -81.81237 25444 ft 406 kts 333°
2026-04-17 21:02 33.05879 -81.82572 25799 ft 407 kts 333°
2026-04-17 21:02 33.08483 -81.83911 26157 ft 408 kts 333°
2026-04-17 21:02 33.11094 -81.85255 26507 ft 409 kts 333°
2026-04-17 21:02 33.13715 -81.86606 26852 ft 411 kts 333°
2026-04-17 21:03 33.16346 -81.87962 27191 ft 412 kts 333°
2026-04-17 21:03 33.18982 -81.89321 27521 ft 413 kts 333°
2026-04-17 21:03 33.21623 -81.90685 27839 ft 414 kts 333°
2026-04-17 21:03 33.24284 -81.92059 28140 ft 416 kts 333°
2026-04-17 21:04 33.26913 -81.93418 28427 ft 417 kts 332°
2026-04-17 21:04 33.29582 -81.94798 28725 ft 419 kts 332°
2026-04-17 21:04 33.32258 -81.96183 29135 ft 417 kts 332°
2026-04-17 21:04 33.34913 -81.97556 29596 ft 415 kts 332°
2026-04-17 21:05 33.37558 -81.98925 30048 ft 412 kts 332°
2026-04-17 21:05 33.40185 -82.00286 30418 ft 411 kts 332°
2026-04-17 21:05 33.42801 -82.01643 30768 ft 409 kts 332°
2026-04-17 21:05 33.45411 -82.02999 31119 ft 408 kts 332°
2026-04-17 21:06 33.48004 -82.04346 31468 ft 407 kts 332°
2026-04-17 21:06 33.50597 -82.05695 31796 ft 405 kts 332°
2026-04-17 21:06 33.53184 -82.07041 32125 ft 404 kts 332°
2026-04-17 21:06 33.55723 -82.08363 32449 ft 402 kts 332°
2026-04-17 21:07 33.58291 -82.09701 32781 ft 401 kts 332°
2026-04-17 21:07 33.60850 -82.11035 33083 ft 400 kts 332°
2026-04-17 21:07 33.63396 -82.12363 33407 ft 398 kts 332°
2026-04-17 21:07 33.65943 -82.13680 33715 ft 398 kts 333°
2026-04-17 21:08 33.68582 -82.14739 33985 ft 402 kts 340°
2026-04-17 21:08 33.71323 -82.15358 34211 ft 408 kts 347°
2026-04-17 21:08 33.74175 -82.15462 34472 ft 415 kts 356°
2026-04-17 21:08 33.77061 -82.15158 34724 ft 416 kts 358°
2026-04-17 21:09 33.79940 -82.14720 34969 ft 417 kts 360°
2026-04-17 21:09 33.82804 -82.14214 35194 ft 416 kts
2026-04-17 21:09 33.85663 -82.13681 35421 ft 415 kts
2026-04-17 21:09 33.88513 -82.13148 35638 ft 414 kts
2026-04-17 21:10 33.91359 -82.12622 35853 ft 413 kts
2026-04-17 21:10 33.94191 -82.12108 36064 ft 411 kts 360°
2026-04-17 21:10 33.97020 -82.11604 36268 ft 410 kts 360°
2026-04-17 21:10 33.99842 -82.11105 36470 ft 409 kts 359°
2026-04-17 21:11 34.02647 -82.10613 36653 ft 408 kts 359°
2026-04-17 21:11 34.05461 -82.10120 36825 ft 407 kts 359°
2026-04-17 21:11 34.08263 -82.09629 36988 ft 407 kts 359°
2026-04-17 21:11 34.11080 -82.09136 37048 ft 409 kts 359°
2026-04-17 21:12 34.16702 -82.08148 37052 ft 407 kts 359°
2026-04-17 21:12 34.22308 -82.07157 37054 ft 407 kts 359°
2026-04-17 21:13 34.27884 -82.06172 37052 ft 407 kts 359°
2026-04-17 21:13 34.33488 -82.05180 37052 ft 407 kts 359°
2026-04-17 21:14 34.39088 -82.04188 37043 ft 407 kts 359°
2026-04-17 21:14 34.44697 -82.03194 37044 ft 407 kts 359°
2026-04-17 21:15 34.50302 -82.02198 37045 ft 407 kts 359°
2026-04-17 21:15 34.55877 -82.01207 37045 ft 407 kts 359°
2026-04-17 21:16 34.61486 -82.00207 37042 ft 407 kts 359°
2026-04-17 21:16 34.67091 -81.99207 37040 ft 407 kts 359°
2026-04-17 21:17 34.72687 -81.98207 37038 ft 407 kts 359°
2026-04-17 21:17 34.77357 -81.97372 37042 ft 407 kts 359°
2026-04-17 21:18 34.82959 -81.96369 37046 ft 407 kts 359°
2026-04-17 21:18 34.88561 -81.95364 37046 ft 407 kts 359°
2026-04-17 21:19 34.94166 -81.94358 37047 ft 407 kts 359°
2026-04-17 21:19 34.99734 -81.93357 37043 ft 406 kts 359°
2026-04-17 21:20 35.05331 -81.92653 37040 ft 401 kts 355°
2026-04-17 21:20 35.10858 -81.92336 37034 ft 400 kts 354°
2026-04-17 21:21 35.16421 -81.92089 37026 ft 399 kts 354°
2026-04-17 21:21 35.21988 -81.91849 37040 ft 399 kts 354°
2026-04-17 21:22 35.27513 -81.91602 37051 ft 399 kts 354°
2026-04-17 21:22 35.33059 -81.91350 37064 ft 399 kts 354°
2026-04-17 21:23 35.38615 -81.91095 37067 ft 399 kts 354°
2026-04-17 21:23 35.44168 -81.90840 37052 ft 399 kts 354°
2026-04-17 21:24 35.49720 -81.90585 37056 ft 398 kts 354°
2026-04-17 21:24 35.55228 -81.90332 37055 ft 398 kts 354°
2026-04-17 21:25 35.60779 -81.90077 37045 ft 398 kts 354°
2026-04-17 21:25 35.66325 -81.89822 37033 ft 399 kts 354°
2026-04-17 21:26 35.71875 -81.89566 37053 ft 399 kts 354°
2026-04-17 21:26 35.77394 -81.89310 37062 ft 399 kts 354°
2026-04-17 21:27 35.82939 -81.89054 37059 ft 399 kts 354°
2026-04-17 21:27 35.88500 -81.88797 37058 ft 399 kts 354°
2026-04-17 21:28 35.94039 -81.88538 37057 ft 398 kts 354°
2026-04-17 21:28 35.99585 -81.88281 37056 ft 398 kts 354°
2026-04-17 21:29 36.05124 -81.88023 37051 ft 398 kts 354°
2026-04-17 21:29 36.10671 -81.87765 37048 ft 398 kts 354°
2026-04-17 21:30 36.16177 -81.87508 37053 ft 398 kts 354°
2026-04-17 21:30 36.21730 -81.87249 37056 ft 398 kts 354°
2026-04-17 21:31 36.27278 -81.86989 37061 ft 399 kts 354°
2026-04-17 21:31 36.32819 -81.86730 37064 ft 399 kts 354°
2026-04-17 21:32 36.38365 -81.86470 37063 ft 399 kts 354°
2026-04-17 21:32 36.43886 -81.86211 37078 ft 399 kts 354°
2026-04-17 21:33 36.49435 -81.85949 37082 ft 398 kts 354°
2026-04-17 21:33 36.54973 -81.85688 37089 ft 398 kts 354°
2026-04-17 21:34 36.60525 -81.85426 37101 ft 399 kts 354°
2026-04-17 21:35 36.68821 -81.85035 37097 ft 399 kts 354°
2026-04-17 21:35 36.74363 -81.84772 37098 ft 399 kts 354°
2026-04-17 21:36 36.79921 -81.84508 37087 ft 399 kts 354°
2026-04-17 21:36 36.85475 -81.84245 37096 ft 399 kts 354°
2026-04-17 21:37 36.91029 -81.83980 37118 ft 400 kts 354°
2026-04-17 21:37 36.96552 -81.83717 37087 ft 400 kts 354°
2026-04-17 21:37 36.99340 -81.83584 36831 ft 400 kts 354°
2026-04-17 21:38 37.02135 -81.83451 36579 ft 402 kts 354°
2026-04-17 21:38 37.04931 -81.83319 36330 ft 403 kts 354°
2026-04-17 21:38 37.07736 -81.83186 36082 ft 405 kts 355°
2026-04-17 21:38 37.10560 -81.83052 35818 ft 406 kts 355°
2026-04-17 21:39 37.13392 -81.82918 35585 ft 409 kts 355°
2026-04-17 21:39 37.16247 -81.82782 35339 ft 410 kts 355°
2026-04-17 21:39 37.19100 -81.82645 35086 ft 412 kts 355°
2026-04-17 21:39 37.21969 -81.82507 34846 ft 414 kts 355°
2026-04-17 21:40 37.24852 -81.82369 34601 ft 415 kts 355°
2026-04-17 21:40 37.27748 -81.82229 34358 ft 417 kts 356°
2026-04-17 21:40 37.30664 -81.82089 34112 ft 419 kts 356°
2026-04-17 21:40 37.33551 -81.81951 33840 ft 421 kts 356°
2026-04-17 21:41 37.36485 -81.81810 33570 ft 422 kts 356°
2026-04-17 21:41 37.39430 -81.81667 33283 ft 424 kts 356°
2026-04-17 21:41 37.42388 -81.81525 33029 ft 426 kts 356°
2026-04-17 21:41 37.45349 -81.81381 32774 ft 427 kts 356°
2026-04-17 21:42 37.48326 -81.81237 32512 ft 429 kts 356°
2026-04-17 21:42 37.51315 -81.81092 32260 ft 430 kts 356°
2026-04-17 21:42 37.54308 -81.80947 32007 ft 431 kts 356°
2026-04-17 21:42 37.57314 -81.80881 31757 ft 430 kts 352°
2026-04-17 21:43 37.60284 -81.81273 31514 ft 425 kts 345°
2026-04-17 21:43 37.63150 -81.82147 31255 ft 423 kts 340°
2026-04-17 21:43 37.65976 -81.83193 31036 ft 424 kts 339°
2026-04-17 21:43 37.68765 -81.84268 30793 ft 425 kts 338°
2026-04-17 21:44 37.71595 -81.85372 30552 ft 427 kts 339°
2026-04-17 21:44 37.74439 -81.86485 30320 ft 428 kts 339°
2026-04-17 21:44 37.77285 -81.87600 30075 ft 429 kts 339°
2026-04-17 21:44 37.80148 -81.88725 29802 ft 431 kts 339°
2026-04-17 21:45 37.83009 -81.89849 29526 ft 432 kts 339°
2026-04-17 21:45 37.85882 -81.90979 29248 ft 432 kts 339°
2026-04-17 21:45 37.88766 -81.92113 28986 ft 434 kts 339°
2026-04-17 21:45 37.91645 -81.93248 28708 ft 433 kts 339°
2026-04-17 21:46 37.94516 -81.94380 28451 ft 432 kts 339°
2026-04-17 21:46 37.97382 -81.95510 28188 ft 430 kts 339°
2026-04-17 21:46 38.00242 -81.96639 27927 ft 429 kts 339°
2026-04-17 21:46 38.03089 -81.97765 27669 ft 428 kts 339°
2026-04-17 21:47 38.05929 -81.98888 27425 ft 426 kts 339°
2026-04-17 21:47 38.08724 -81.99994 27168 ft 425 kts 339°
2026-04-17 21:47 38.11546 -82.01112 26918 ft 424 kts 339°
2026-04-17 21:47 38.14357 -82.02227 26670 ft 423 kts 339°
2026-04-17 21:48 38.17159 -82.03339 26426 ft 422 kts 339°
2026-04-17 21:48 38.19955 -82.04450 26175 ft 421 kts 339°
2026-04-17 21:48 38.22752 -82.05561 25932 ft 420 kts 339°
2026-04-17 21:48 38.25535 -82.06668 25711 ft 419 kts 339°
2026-04-17 21:49 38.28320 -82.07777 25463 ft 418 kts 339°
2026-04-17 21:49 38.31087 -82.08880 25224 ft 417 kts 339°
2026-04-17 21:49 38.33852 -82.09983 24992 ft 416 kts 339°
2026-04-17 21:49 38.36616 -82.11085 24759 ft 415 kts 339°
2026-04-17 21:50 38.39370 -82.12185 24531 ft 414 kts 339°
2026-04-17 21:50 38.42079 -82.13268 24304 ft 413 kts 339°
2026-04-17 21:50 38.44824 -82.14366 24078 ft 412 kts 339°
2026-04-17 21:50 38.47570 -82.15450 23853 ft 412 kts 341°
2026-04-17 21:51 38.50378 -82.16219 23630 ft 413 kts 347°
2026-04-17 21:51 38.53216 -82.16782 23365 ft 413 kts 348°
2026-04-17 21:51 38.56060 -82.17306 23098 ft 412 kts 348°
2026-04-17 21:51 38.58898 -82.17826 22837 ft 411 kts 348°
2026-04-17 21:52 38.61720 -82.18346 22573 ft 410 kts 348°
2026-04-17 21:52 38.64540 -82.18869 22314 ft 409 kts 348°
2026-04-17 21:52 38.67351 -82.19392 22056 ft 407 kts 348°
2026-04-17 21:52 38.70154 -82.19915 21799 ft 406 kts 348°
2026-04-17 21:53 38.72950 -82.20438 21552 ft 405 kts 348°
2026-04-17 21:53 38.75743 -82.20961 21301 ft 404 kts 348°
2026-04-17 21:53 38.78485 -82.21474 21055 ft 403 kts 348°
2026-04-17 21:53 38.81258 -82.21995 20794 ft 402 kts 348°
2026-04-17 21:54 38.84026 -82.22514 20571 ft 401 kts 348°
2026-04-17 21:54 38.86783 -82.23033 20326 ft 400 kts 348°
2026-04-17 21:54 38.89540 -82.23551 20083 ft 399 kts 348°
2026-04-17 21:54 38.92287 -82.24068 19847 ft 398 kts 348°
2026-04-17 21:55 38.95030 -82.24585 19612 ft 397 kts 348°
2026-04-17 21:55 38.97764 -82.25100 19369 ft 396 kts 348°
2026-04-17 21:55 39.00490 -82.25615 19134 ft 395 kts 349°
2026-04-17 21:55 39.03212 -82.26128 18909 ft 395 kts 349°
2026-04-17 21:56 39.05923 -82.26641 18675 ft 394 kts 349°
2026-04-17 21:56 39.08630 -82.27153 18443 ft 393 kts 349°
2026-04-17 21:56 39.11336 -82.27665 18202 ft 392 kts 349°
2026-04-17 21:56 39.14034 -82.28176 17940 ft 390 kts 349°
2026-04-17 21:57 39.16692 -82.28679 17598 ft 382 kts 349°
2026-04-17 21:57 39.19308 -82.29174 17118 ft 378 kts 349°
2026-04-17 21:57 39.21863 -82.29659 16651 ft 374 kts 349°
2026-04-17 21:57 39.24435 -82.30148 16193 ft 371 kts 349°
2026-04-17 21:58 39.26977 -82.30632 15723 ft 368 kts 349°
2026-04-17 21:58 39.29498 -82.31112 15267 ft 365 kts 349°
2026-04-17 21:58 39.32006 -82.31589 14810 ft 362 kts 349°
2026-04-17 21:58 39.34490 -82.32062 14366 ft 360 kts 349°
2026-04-17 21:59 39.36961 -82.32534 13914 ft 358 kts 349°
2026-04-17 21:59 39.39419 -82.33003 13439 ft 356 kts 349°
2026-04-17 21:59 39.41854 -82.33468 12983 ft 353 kts 349°
2026-04-17 21:59 39.44274 -82.33930 12537 ft 349 kts 349°
2026-04-17 22:00 39.46661 -82.34387 12110 ft 346 kts 349°
2026-04-17 22:00 39.49033 -82.34856 11618 ft 344 kts 347°
2026-04-17 22:00 39.51309 -82.35722 11264 ft 337 kts 336°
2026-04-17 22:00 39.53454 -82.36895 10907 ft 332 kts 334°
2026-04-17 22:01 39.55528 -82.38207 10423 ft 331 kts 327°
2026-04-17 22:01 39.57267 -82.40047 10251 ft 316 kts 310°
2026-04-17 22:01 39.58419 -82.42342 10142 ft 300 kts 292°
2026-04-17 22:01 39.58960 -82.44876 10030 ft 286 kts 277°
2026-04-17 22:02 39.59160 -82.47394 9906 ft 276 kts 274°
2026-04-17 22:02 39.59294 -82.49855 9621 ft 272 kts 273°
2026-04-17 22:02 39.59419 -82.52296 9340 ft 269 kts 273°
2026-04-17 22:02 39.59549 -82.54707 9070 ft 267 kts 274°
2026-04-17 22:03 39.59912 -82.57107 8792 ft 280 kts 290°
2026-04-17 22:03 39.60988 -82.59184 8533 ft 277 kts 316°
2026-04-17 22:03 39.62604 -82.60448 8391 ft 268 kts 336°
2026-04-17 22:03 39.64329 -82.61234 8252 ft 258 kts 340°
2026-04-17 22:04 39.66027 -82.61920 8023 ft 253 kts 341°
2026-04-17 22:04 39.67704 -82.62595 7735 ft 252 kts 341°
2026-04-17 22:04 39.68806 -82.63043 7546 ft 250 kts 341°
2026-04-17 22:04 39.71000 -82.63946 7127 ft 249 kts 340°
2026-04-17 22:05 39.72650 -82.64631 6833 ft 248 kts 340°
2026-04-17 22:05 39.74287 -82.65312 6542 ft 247 kts 340°
2026-04-17 22:05 39.75926 -82.65995 6239 ft 246 kts 340°
2026-04-17 22:05 39.77019 -82.66452 6152 ft 240 kts 340°
2026-04-17 22:06 39.78536 -82.67084 6077 ft 226 kts 340°
2026-04-17 22:06 39.80007 -82.67701 5833 ft 220 kts 340°
2026-04-17 22:06 39.81459 -82.68310 5528 ft 218 kts 340°
2026-04-17 22:06 39.82903 -82.68917 5209 ft 217 kts 340°
2026-04-17 22:07 39.84339 -82.69522 4888 ft 217 kts 340°
2026-04-17 22:07 39.85770 -82.70123 4577 ft 216 kts 340°
2026-04-17 22:07 39.87206 -82.70725 4252 ft 216 kts 340°
2026-04-17 22:07 39.88634 -82.71323 3984 ft 216 kts 340°
2026-04-17 22:08 39.90032 -82.72010 3698 ft 214 kts 331°
2026-04-17 22:08 39.91211 -82.73147 3441 ft 209 kts 310°
2026-04-17 22:08 39.91953 -82.74733 3166 ft 202 kts 287°
2026-04-17 22:08 39.92161 -82.76484 3062 ft 189 kts 265°
2026-04-17 22:09 39.91874 -82.78025 2943 ft 169 kts 244°
2026-04-17 22:09 39.91301 -82.79305 2754 ft 156 kts 231°
2026-04-17 22:09 39.90618 -82.80329 2491 ft 150 kts 226°
2026-04-17 22:09 39.89903 -82.81302 2318 ft 146 kts 225°
2026-04-17 22:10 39.89196 -82.82235 2490 ft 146 kts 225°
2026-04-17 22:10 39.88454 -82.83210 2400 ft 151 kts 224°
2026-04-17 22:10 39.87725 -82.84176 2312 ft 151 kts 226°
2026-04-17 22:10 39.86985 -82.85160 2069 ft 149 kts 224°
2026-04-17 22:11 39.86251 -82.86122 1908 ft 150 kts 226°
2026-04-17 22:11 39.85523 -82.87086 1681 ft 148 kts 225°
2026-04-17 22:11 39.84802 -82.88034 1469 ft 147 kts 224°
2026-04-17 22:11 39.84084 -82.88980 1261 ft 147 kts 223°
2026-04-17 22:12 39.83362 -82.89932 1058 ft 148 kts 222°
2026-04-17 22:12 39.82639 -82.90881 847 ft 145 kts 224°
2026-04-17 22:12 39.81947 -82.91777 748 ft 126 kts 225°
2026-04-17 22:12 39.81491 -82.92382 746 ft 79 kts 225°
2026-04-17 22:13 39.81127 -82.92860 748 ft 71 kts 226°
2026-04-17 22:13 39.80832 -82.93252 746 ft 29 kts 233°
2026-04-17 22:13 39.80879 -82.93410 747 ft 18 kts 316°
2026-04-17 22:13 39.80893 -82.93427 750 ft 0 kts 316°
2026-04-17 22:14 39.80920 -82.93462 752 ft 12 kts 317°
2026-04-17 22:14 39.81023 -82.93588 755 ft 23 kts 316°
2026-04-17 22:14 39.81142 -82.93733 753 ft 24 kts 317°
2026-04-17 22:15 39.81274 -82.93705 751 ft 23 kts 46°
2026-04-17 22:15 39.81395 -82.93565 751 ft 22 kts 10°
2026-04-17 22:15 39.81481 -82.93604 750 ft 6 kts 351°
2026-04-17 22:15 39.81521 -82.93595 752 ft 8 kts 15°
2026-04-17 22:16 39.81524 -82.93593 752 ft 0 kts 15°